Location: �chenoz-la-M�line
(47.6009°N, 6.1354°E)
Time: 11:58:27
(UTC+00:00)

FALCON 9 DEB - Pass Details

Date: 27 January 2021
Orbit: 377 x 389 km, 53.0° (Epoch: 02 March)

Event Time Altitude Azimuth Distance (km) Brightness Sun altitude
Exits shadow 06:23:02 - 251° (WSW) 1,735 5.7 -7.8°
Reaches altitude 10° 06:23:50 10° 253° (WSW) 1,407 5.2 -7.7°
Maximum altitude 06:26:57 65° 336° (NNW) 426 2.9 -7.2°
Drops below altitude 10° 06:30:04 10° 59° (ENE) 1,403 6.3 -6.7°
Sets 06:32:08 0° 62° (ENE) 2,255 7.4 -6.4°
